Torna al catalogo

STARLINK-11200

AttivoComunicazioniVLEO
NORAD 60310·PAYLOAD·🇺🇸 United States

Lanciato Jul 28, 2024 da Vandenberg Space Force Base

Loading…

Prossimi Passaggi (prossime 24 ore)

TLE

AggiornatoSource: CelesTrak SupGP

Epoca: Sep 15, 2026, 02:54 UTC

1 60310C 24133K   26258.12131944  .00060407  00000+0  49727-3 0  2587
2 60310  53.1569 292.0950 0001163  87.3900 159.4147 15.69694844    14

Traccia STARLINK-11200 in tempo reale con AllMySat

Download on the App Store